Regional Weather Roundup
Issued by NWS

Home | Current Version | Previous Version | Text Only | Print | Product List | Glossary Off
Versions: 1 2 3 4 5 6 7 8 9 10 11 12 13 14 15 16 17 18 19 20 21 22 23 24 25 26 27 28 29 30 31 32 33 34 35 36 37 38 39 40 41 42 43 44 45 46 47 48 49 50

000
ASUS43 KDTX 191310
RWRMI
MICHIGAN HOURLY REGIONAL WEATHER ROUNDUP
NATIONAL WEATHER SERVICE DETROIT/PONTIAC MI
900 AM EDT SAT AUG 19 2017

NOTE: "FAIR" INDICATES FEW OR NO CLOUDS BELOW 12,000 FEET WITH NO
SIGNIFICANT WEATHER AND/OR OBSTRUCTION TO VISIBILITY.

MIZ047>049-052>055-059>063-066>070-074>076-081>083-191400-
SOUTHEAST LOWER MICHIGAN

CITY           SKY/WX    TMP DP  RH WIND       PRES   REMARKS
ADRIAN         SUNNY     66  59  78 VRB3      29.92R
ALMA           SUNNY     65  60  83 W5        29.92S
ANN ARBOR      CLOUDY    68  64  87 SW7       29.91R
BAD AXE        CLOUDY    63  60  89 W6        29.88S
CARO           PTSUNNY   64  59  86 W6        29.89S
DETROIT CITY   CLOUDY    69  61  75 W7        29.89R
DETROIT        PTSUNNY   69  62  78 W5        29.90S
FLINT          PTSUNNY   65  60  84 NW8       29.91R
GROSSE ILE     CLOUDY    68  62  80 CALM      29.89S
HILLSDALE      CLOUDY    68  63  83 W6        29.92R
HOWELL         CLOUDY    65  61  87 NW7       29.92R

CITY           SKY/WX    TMP DP  RH WIND       PRES   REMARKS
JACKSON        MOSUNNY   66  62  87 SW6       29.92R
LAMBERTVILLE   CLOUDY    65  63  94 W3        29.91R
LANSING        PTSUNNY   66  60  81 NW7       29.93R
LAPEER         PTSUNNY   64  60  87 NW6       29.90R
MASON          CLOUDY    67  62  83 NW3       29.92R
MONROE         PTSUNNY   67  63  89 SW5       29.90R
MT. CLEMENS    CLOUDY    67  62  84 W7        29.87R
PONTIAC        PTSUNNY   66  62  87 W12       29.90R
PORT HOPE        N/A     65  59  81 W6        29.85R
PORT HURON     PTSUNNY   66  61  82 W5        29.88S
TRI CITIES     CLOUDY    63  61  93 W7        29.91R
MIDLAND        CLOUDY    62  59  90 W3        29.90R
TROY           CLOUDY    67  61  81 W6        29.91S
SAGINAW HB     PTSUNNY   64  59  82 W8        29.90R
$$
MIZ043>046-050>051-056>058-064>065-071>073-077>080-191400-
SOUTHWEST LOWER MICHIGAN

CITY           SKY/WX    TMP DP  RH WIND       PRES   REMARKS
BATTLE CREEK   MOSUNNY   67  63  87 NW3       29.94R
BENTON HARBOR  MOSUNNY   71  62  73 VRB6      29.93R
BIG RAPIDS     SUNNY     64  57  80 NW6G16    29.92R
COLDWATER      CLOUDY    66  66 100 W3        29.93R FOG
FREMONT        FAIR      62  62 100 CALM      29.92S
HOLLAND        SUNNY     68  61  78 CALM      29.93S
GRAND RAPIDS   MOSUNNY   67  60  78 CALM      29.92R
IONIA          FAIR      65  60  84 NW5       29.92R
KALAMAZOO      MOSUNNY   67  61  81 NW6       29.94R
LUDINGTON      SUNNY     68  60  75 W6        29.91R
MARSHALL       MOSUNNY   66  64  91 CALM      29.92R
MOUNT PLEASANT SUNNY     66  59  78 W8        29.91R
MUSKEGON       MOSUNNY   68  61  78 CALM      29.93R
SOUTH HAVEN    MOSUNNY   71  65  83 NW7       29.94R
$$
MIZ016>042-191400-
NORTHERN LOWER MICHIGAN

CITY           SKY/WX    TMP DP  RH WIND       PRES   REMARKS
ALPENA         CLOUDY    63  60  90 W7        29.85R
BEAVER ISLAND  PTSUNNY   65  60  83 W7        29.87S
BELLAIRE       MOSUNNY   65  60  85 CALM      29.89R
CADILLAC       SUNNY     64  59  85 W7        29.91R
CHARLEVOIX     SUNNY     67  60  80 W9        29.91R
FRANKFORT      SUNNY     68  64  86 SW5       29.90R
GAYLORD        PTSUNNY   61  57  87 W5        29.88S
GRAYLING       CLOUDY    61  58  88 W5        29.90R
HARBOR SPRINGS SUNNY     64  59  82 SW3       29.87R
HOUGHTON LAKE  PTSUNNY   62  58  86 W7        29.91R
MANISTEE       SUNNY     64  61  90 CALM      29.90R
OSCODA         CLOUDY    64  59  82 W10       29.85R
PELLSTON       SUNNY     64  59  83 W9        29.86R
ROGERS CITY    CLOUDY    62  58  86 W7        29.86R
TRAVERSE CITY  MOSUNNY   66  60  81 W5        29.88R
$$
MIZ007>008-015-191400-
EASTERN UPPER MICHIGAN

CITY           SKY/WX    TMP DP  RH WIND       PRES   REMARKS
KINROSS        PTSUNNY   60  58  92 NW6       29.85R
MACKINAC ISLAN MOSUNNY   61  61 100 NW6       29.85R
NEWBERRY       MOSUNNY   58  57  97 W5        29.86R
S. S. MARIE    MOSUNNY   62  59  90 VRB5      29.83R
MUNISING         N/A     61  58  90 S7        29.85R
$$
MIZ004>006-011>014-085-191400-
CENTRAL UPPER MICHIGAN

CITY           SKY/WX    TMP DP  RH WIND       PRES   REMARKS
MANISTIQUE     MOSUNNY   61  55  81 CALM      29.86S
ESCANABA       SUNNY     61  58  90 W9        29.87R
MENOMINEE      MOSUNNY   62  59  90 W9        29.90R
SAWYER-GWINN   MOSUNNY   59  55  88 W5        29.87R
$$
MIZ001>003-009>011-084-191400-
WESTERN UPPER MICHIGAN

CITY           SKY/WX    TMP DP  RH WIND       PRES   REMARKS
IRON MOUNTAIN  CLOUDY    61  57  87 VRB3      29.88S
HOUGHTON         N/A    N/A N/A N/A MISG      29.84R
COPPER HARBOR    N/A     65  57  75 N12       29.81R
IRONWOOD       SUNNY     63  58  83 SW9       29.90R
$$

ABBREVIATIONS USED IN REMARKS
   TC - TEMPERATURE IN CELSIUS
  WCI - WIND CHILL INDEX
   HX - HEAT INDEX
  VSB - VISIBILITY





USA.gov is the U.S. government's official web portal to all federal, state and local government web resources and services.